Joliet, IL

9:51 PM CST on February 18, 2018 (GMT -0600)
Joliet Regional

Weather History for KJOT - May, 2013

Change the Weather History Date:

Friday, May 31, 2013

  Actual Average (KARR) Record (KARR)
Temperature  
Mean Temperature 69 °F -  
Max Temperature 75 °F 70 °F 89 °F (2002)
Min Temperature 63 °F 50 °F 41 °F (2003)
Cooling Degree Days 4    
Growing Degree Days 19 (Base 50)    
Moisture  
Dew Point 65 °F    
Average Humidity 85    
Maximum Humidity 96    
Minimum Humidity 71    
Precipitation  
Precipitation 0.28 in - - ()
Sea Level Pressure  
Sea Level Pressure 29.83 in    
Wind  
Wind Speed 7 mph (South)    
Max Wind Speed 14 mph    
Max Gust Speed 109 mph    
Visibility 10 miles    
Events Rain , Thunderstorm    
Averages and records for this station are not official NWS values.
T = Trace of Precipitation, MM = Missing Value Source: NWS Daily Summary

Daily Weather History Graph

Daily Weather History Graph

Search for Another Location

Airport or City:

Trip Planner

Search our weather history database for the weather conditions in past years. The results will help you decide how hot, cold, wet, or windy it might be!

Date:

Astronomy

May. 31, 2013 Rise Set
Actual Time 5:21 AM CDT 8:19 PM CDT
Civil Twilight 4:48 AM CDT 8:52 PM CDT
Nautical Twilight 4:06 AM CDT 9:35 PM CDT
Astronomical Twilight 3:17 AM CDT 10:24 PM CDT
Moon 12:50 AM CDT (5/31) 12:40 PM CDT (5/31)
Length of Visible Light 16h 04m
Length of Day
14h 58m
Waning Gibbous, 51% of the Moon is Illuminated
May 31
Waning Gibbous
May 31
Last Quarter
Jun 8
New
Jun 16
First Quarter
Jun 23
Full

Hourly Weather History & Observations

Time (CDT) Temp. Dew Point Humidity Pressure Visibility Wind Dir Wind Speed Gust Speed Precip Events Conditions
12:15 AM 63.1 °F 61.7 °F 95% 29.90 in 10.0 mi Calm Calm - N/A   Mostly Cloudy
12:35 AM 63.5 °F 61.9 °F 94% 29.89 in 10.0 mi SSE 4.6 mph - N/A   Overcast
12:55 AM 63.7 °F 62.1 °F 94% 29.89 in 10.0 mi SE 8.1 mph - N/A   Overcast
1:15 AM 64.0 °F 62.4 °F 94% 29.88 in 10.0 mi SE 8.1 mph - N/A   Overcast
1:35 AM 64.4 °F 62.8 °F 94% 29.85 in 10.0 mi SE 6.9 mph - N/A   Overcast
1:55 AM 64.8 °F 62.8 °F 93% 29.85 in 10.0 mi South 6.9 mph - N/A   Mostly Cloudy
2:15 AM 64.8 °F 63.3 °F 95% 29.87 in 1.8 mi SSW 8.1 mph - 0.11 in Rain Heavy Rain
2:35 AM 64.8 °F 63.5 °F 96% 29.85 in 3.0 mi South 8.1 mph - 0.25 in Rain Rain
2:55 AM 65.3 °F 63.5 °F 94% 29.84 in 10.0 mi South 3.5 mph - 0.25 in Rain Light Rain
3:15 AM 65.5 °F 63.9 °F 94% 29.84 in 10.0 mi SSW 4.6 mph - 0.01 in   Overcast
3:35 AM 65.5 °F 63.9 °F 94% 29.84 in 10.0 mi South 8.1 mph - 0.01 in   Mostly Cloudy
3:55 AM 65.5 °F 63.7 °F 94% 29.84 in 10.0 mi South 6.9 mph - 0.01 in   Scattered Clouds
4:15 AM 65.8 °F 64.0 °F 94% 29.83 in 10.0 mi South 8.1 mph - N/A   Mostly Cloudy
4:35 AM 65.5 °F 63.5 °F 93% 29.84 in 10.0 mi SSW 5.8 mph - N/A   Mostly Cloudy
4:55 AM 65.5 °F 63.7 °F 94% 29.85 in 10.0 mi SSW 4.6 mph - N/A   Clear
5:15 AM 65.3 °F 63.5 °F 94% 29.85 in 10.0 mi SSW 4.6 mph - N/A   Clear
5:35 AM 64.6 °F 63.1 °F 95% 29.85 in 10.0 mi South 6.9 mph - N/A   Clear
5:55 AM 65.1 °F 63.5 °F 94% 29.85 in 10.0 mi South 5.8 mph - N/A   Clear
6:15 AM 65.5 °F 63.5 °F 93% 29.86 in 10.0 mi South 6.9 mph - N/A   Clear
6:35 AM 65.5 °F 63.3 °F 93% 29.87 in 10.0 mi SSW 8.1 mph - N/A   Clear
6:55 AM 66.2 °F 62.6 °F 88% 29.87 in 10.0 mi SSW 10.4 mph - N/A   Clear
7:15 AM 65.8 °F 62.2 °F 88% 29.87 in 10.0 mi SSE 5.8 mph - N/A   Scattered Clouds
7:35 AM 67.1 °F 62.6 °F 85% 29.86 in 10.0 mi South 9.2 mph - N/A   Scattered Clouds
7:55 AM 67.5 °F 62.2 °F 83% 29.88 in 10.0 mi South 10.4 mph - N/A   Scattered Clouds
8:15 AM 66.7 °F 61.9 °F 84% 29.88 in 10.0 mi South 11.5 mph 18.4 mph N/A   Mostly Cloudy
8:35 AM 68.5 °F 62.6 °F 81% 29.88 in 10.0 mi South 6.9 mph - N/A   Mostly Cloudy
8:55 AM 70.3 °F 63.3 °F 78% 29.88 in 10.0 mi SSW 11.5 mph - N/A   Scattered Clouds
9:15 AM 70.0 °F 62.4 °F 77% 29.87 in 10.0 mi South 13.8 mph 19.6 mph N/A   Scattered Clouds
9:35 AM 72.3 °F 64.8 °F 77% 29.86 in 10.0 mi South 10.4 mph 19.6 mph N/A   Clear
9:55 AM 72.0 °F 64.0 °F 76% 29.87 in 10.0 mi SSW 12.7 mph 21.9 mph N/A   Clear
10:15 AM 72.3 °F 64.6 °F 77% 29.89 in 10.0 mi SW 10.4 mph 20.7 mph N/A   Scattered Clouds
10:35 AM 72.5 °F 64.9 °F 77% 29.88 in 10.0 mi SW 9.2 mph 17.3 mph N/A   Mostly Cloudy
10:55 AM 73.0 °F 64.9 °F 76% 29.88 in 10.0 mi SSW 10.4 mph 17.3 mph N/A   Scattered Clouds
11:15 AM 73.4 °F 65.3 °F 76% 29.89 in 10.0 mi SSW 10.4 mph - N/A   Scattered Clouds
11:35 AM 73.8 °F 65.5 °F 75% 29.89 in 10.0 mi SSW 6.9 mph - N/A   Scattered Clouds
11:55 AM 74.3 °F 65.7 °F 74% 29.88 in 10.0 mi SSW 10.4 mph 16.1 mph N/A   Scattered Clouds
12:15 PM 74.5 °F 65.5 °F 73% 29.87 in 10.0 mi SSW 8.1 mph - N/A   Clear
12:35 PM 74.7 °F 64.8 °F 71% 29.86 in 10.0 mi SSW 9.2 mph 16.1 mph N/A   Clear
12:55 PM 75.7 °F 66.0 °F 72% 29.86 in 10.0 mi SSW 9.2 mph 17.3 mph N/A   Scattered Clouds
4:35 PM 74.3 °F 65.5 °F 74% 29.80 in 10.0 mi South 6.9 mph - N/A   Unknown
4:55 PM 73.8 °F 66.4 °F 78% 29.78 in 10.0 mi South 8.1 mph - N/A   Clear
5:15 PM 73.0 °F 66.6 °F 80% 29.80 in 10.0 mi South 8.1 mph - N/A   Scattered Clouds
5:35 PM 72.9 °F 64.8 °F 76% 29.79 in 10.0 mi South 13.8 mph - N/A   Scattered Clouds
5:55 PM 72.5 °F 64.9 °F 77% 29.78 in 10.0 mi South 8.1 mph - N/A   Clear
6:15 PM 72.0 °F 65.7 °F 80% 29.78 in 10.0 mi South 6.9 mph - N/A   Clear
6:35 PM 73.0 °F 66.4 °F 80% 29.78 in 10.0 mi South 8.1 mph - N/A   Clear
6:55 PM 73.0 °F 66.2 °F 79% 29.77 in 10.0 mi South 9.2 mph 16.1 mph N/A   Clear
7:15 PM 72.5 °F 66.0 °F 80% 29.77 in 10.0 mi SSW 8.1 mph - N/A   Scattered Clouds
7:35 PM 71.8 °F 65.1 °F 79% 29.77 in 10.0 mi SSW 5.8 mph - N/A Thunderstorm Scattered Clouds
7:55 PM 71.1 °F 64.8 °F 80% 29.77 in 10.0 mi South 6.9 mph - N/A   Scattered Clouds
8:15 PM 71.1 °F 64.4 °F 79% 29.78 in 10.0 mi SSW 3.5 mph - N/A   Overcast
8:35 PM 71.1 °F 64.4 °F 79% 29.78 in 10.0 mi SSW 5.8 mph - N/A   Overcast
8:55 PM 70.7 °F 64.6 °F 81% 29.79 in 10.0 mi SSW 4.6 mph - N/A   Mostly Cloudy
9:15 PM 70.7 °F 64.9 °F 82% 29.79 in 10.0 mi South 5.8 mph - N/A   Overcast
9:35 PM 70.7 °F 65.7 °F 84% 29.78 in 10.0 mi South 5.8 mph 109.3 mph N/A   Mostly Cloudy
9:55 PM 70.9 °F 66.6 °F 86% 29.79 in 10.0 mi South 6.9 mph - N/A   Scattered Clouds
10:15 PM 71.1 °F 67.1 °F 87% 29.78 in 10.0 mi South 5.8 mph - N/A   Scattered Clouds
10:35 PM 72.0 °F 68.2 °F 88% 29.76 in 10.0 mi SSE 6.9 mph - N/A   Scattered Clouds
10:55 PM 71.1 °F 68.2 °F 91% 29.71 in 10.0 mi SSE 10.4 mph 18.4 mph N/A Rain Light Rain
11:15 PM 71.4 °F 68.7 °F 91% 29.74 in 10.0 mi South 9.2 mph - N/A Rain Rain
11:35 PM 71.2 °F 68.4 °F 91% 29.72 in 7.0 mi SSE 5.8 mph - 0.01 in Rain , Thunderstorm Thunderstorms and Rain
11:55 PM 71.2 °F 67.8 °F 89% 29.74 in 10.0 mi SSW 4.6 mph - 0.02 in Rain Light Rain